Theta_e
313 313 312 313 313 312 312 311 311 310 310 306 302 304 294 293 291 302 306 308 305 295 288 294 292 289 292 296 295 296 294 293 294 292 293 291 293 291 290 290 289 290 288 289 288 290 287 290 289 290 291 293 295 297 298 298 295 296 293 295 298 305 296 291 293 297 302 306 308 307 307 307 304 303 301 301 299 299 298 295 292 294 293 292 291 290 292
312 312 313 313 312 311 312 311 311 311 310 306 305 299 294 294 295 297 306 307 303 294 285 286 287 291 294 293 292 296 294 294 293 292 293 292 291 290 290 292 293 289 291 290 288 292 285 291 290 289 293 291 298 298 297 298 294 294 292 291 298 290 292 289 286 289 293 297 300 301 305 305 302 302 302 302 303 302 298 299 296 294 293 294 289 286 293
312 313 313 312 312 311 311 310 311 311 311 309 305 297 297 295 298 298 300 305 301 291 292 290 288 290 290 290 289 291 293 295 295 294 292 295 292 291 289 293 292 291 293 290 291 292 289 287 292 292 292 292 298 297 297 298 295 297 299 302 301 292 290 288 284 284 285 287 287 289 293 297 302 304 303 302 301 300 297 294 294 289 294 295 291 289 296
313 313 313 312 312 311 311 311 311 311 311 310 306 301 297 291 285 293 295 298 297 296 298 294 291 289 290 288 290 292 290 294 296 296 294 295 293 291 292 293 293 291 290 288 288 288 292 290 289 290 289 292 294 296 296 297 296 302 304 303 299 292 293 291 290 288 288 291 294 300 301 300 298 301 302 302 301 302 300 296 291 291 292 294 295 297 297
313 313 313 312 312 311 311 311 312 311 310 310 305 302 297 294 288 289 287 294 294 292 293 292 292 289 293 285 290 288 290 291 293 296 291 294 293 292 292 291 289 290 289 288 287 289 288 291 291 289 290 292 293 297 296 297 299 303 300 302 298 293 288 290 291 292 293 294 294 298 300 298 301 301 301 303 302 300 299 296 295 295 294 289 297 299 298
313 313 313 312 311 311 312 311 311 310 309 309 306 295 295 286 291 293 295 288 285 287 288 292 291 293 294 289 292 289 289 290 288 293 294 294 295 290 292 293 292 290 289 288 285 287 287 289 287 292 291 291 293 292 296 296 300 300 296 299 295 290 287 291 292 290 292 293 294 297 299 302 304 304 302 301 302 300 298 297 298 300 296 293 298 300 299
313 313 313 313 311 311 312 312 311 310 309 308 304 295 297 295 295 294 298 289 291 291 292 293 293 291 293 291 292 289 289 288 291 291 291 292 291 293 286 288 290 290 291 290 286 287 283 284 291 289 289 290 290 289 293 296 298 296 294 295 296 292 287 291 292 289 290 292 296 301 302 303 303 303 302 303 303 302 301 300 301 302 299 300 301 302 302
313 313 312 313 312 312 312 311 311 311 309 308 302 300 292 291 291 290 296 294 292 292 292 292 291 288 293 289 290 291 290 288 291 293 291 288 290 294 289 289 290 290 290 289 286 288 289 289 286 290 291 291 292 291 291 291 296 295 292 293 295 291 288 295 291 288 289 294 300 300 299 301 300 302 302 303 303 303 302 301 301 304 303 302 305 303 303
312 313 313 313 312 312 312 312 312 311 310 304 301 300 303 301 301 300 293 289 291 293 292 290 289 287 290 287 290 291 291 290 292 292 295 292 289 291 289 291 290 292 290 290 290 292 291 291 291 292 291 287 294 291 292 295 289 292 291 292 292 292 288 292 289 285 286 295 295 297 299 301 300 301 302 300 301 300 302 300 301 301 301 304 305 302 301
313 313 313 313 313 312 312 312 312 310 310 305 303 297 307 305 304 303 297 288 293 289 291 291 289 285 291 292 292 291 291 292 293 288 294 295 294 293 292 292 291 289 289 288 291 293 293 293 294 295 295 295 295 296 296 295 292 291 291 293 290 291 289 287 287 283 285 292 294 295 297 297 296 298 301 302 302 301 301 303 305 304 304 302 300 302 305
313 313 313 313 313 313 313 313 313 313 310 304 301 301 304 300 297 298 297 288 290 290 288 288 288 291 292 293 292 293 292 293 293 287 288 294 293 296 295 293 289 286 288 292 296 297 296 297 297 297 296 295 294 295 296 296 295 293 292 290 291 291 290 287 289 282 285 289 293 298 295 288 291 302 307 307 302 307 307 307 310 313 314 302 305 306 309
312 313 313 313 313 313 314 314 313 311 310 309 307 303 305 306 303 299 293 287 288 291 288 286 289 291 291 293 293 292 292 292 292 295 290 292 293 295 294 293 291 286 295 298 298 298 298 298 298 297 296 295 295 295 294 293 294 296 297 292 290 289 290 287 288 284 284 289 294 295 289 290 302 306 308 309 312 314 312 312 313 313 315 316 312 310 308
313 313 313 313 313 313 313 313 313 312 310 310 308 303 307 308 302 298 295 291 287 289 287 288 292 292 293 294 293 293 294 294 295 296 294 293 293 294 296 294 292 294 299 297 297 295 291 289 291 291 292 293 294 294 294 293 293 294 295 296 291 289 288 288 287 287 289 291 289 287 290 302 305 306 307 309 309 308 313 311 313 314 314 315 313 311 310
313 313 313 313 313 313 313 314 313 313 311 310 307 307 307 306 300 298 296 290 289 291 292 291 292 292 293 293 293 293 294 293 294 294 291 295 293 293 296 297 297 300 299 299 295 292 287 286 284 286 287 290 291 290 292 294 294 294 293 294 295 292 291 289 284 290 284 287 286 290 302 303 303 302 303 304 302 303 306 304 309 314 315 316 315 315 314
313 313 313 313 313 313 314 314 314 314 313 310 309 308 307 307 305 300 301 296 288 291 292 286 290 292 293 293 294 292 292 291 290 289 294 296 295 297 297 299 300 300 299 295 289 290 286 285 281 281 284 284 281 284 293 291 296 296 295 295 295 295 289 291 285 285 290 284 284 289 293 288 295 302 306 308 309 310 309 311 308 315 316 318 317 317 317
313 313 313 313 314 314 314 314 314 313 312 309 310 308 308 309 308 305 301 296 293 285 289 294 295 294 293 293 294 292 291 290 289 290 289 291 294 296 299 300 301 300 299 296 291 288 286 282 280 281 279 283 287 286 285 291 291 295 296 295 295 295 295 293 287 285 286 285 284 285 285 293 300 301 304 307 310 312 311 310 305 314 316 317 318 318 319
313 313 313 313 314 314 314 314 314 313 312 310 308 308 307 311 307 304 300 298 295 289 297 298 298 297 294 292 294 291 293 290 292 288 285 287 291 295 297 299 300 299 298 292 290 287 283 282 284 283 286 288 285 285 290 289 288 290 293 294 293 292 291 291 287 285 287 286 285 283 292 290 298 303 305 307 312 314 309 300 301 314 316 317 318 318 319
313 313 313 314 314 314 314 314 314 314 312 312 310 307 307 311 310 307 302 298 294 293 298 300 297 294 293 295 293 296 297 296 295 296 290 291 293 294 294 296 293 298 300 289 288 283 283 282 280 281 281 290 291 290 282 288 286 287 288 290 288 289 289 289 285 286 287 288 286 292 296 301 304 305 306 308 314 313 301 294 306 315 316 317 318 319 320
313 313 314 314 314 314 314 314 314 314 314 310 311 309 308 311 311 308 303 300 297 291 300 302 303 299 301 303 298 298 298 296 295 291 290 288 290 297 296 296 298 289 295 288 287 284 283 282 287 285 284 286 291 284 290 286 286 292 292 289 287 288 289 290 290 285 284 285 284 286 295 302 306 306 307 313 311 300 298 311 318 316 314 316 317 318 319
313 313 314 314 314 314 314 314 314 314 314 312 310 305 308 312 312 309 303 298 299 296 300 301 302 299 302 299 295 294 295 296 296 291 290 286 293 296 293 288 291 293 289 290 283 287 282 281 284 288 284 286 288 293 289 290 294 290 291 293 291 290 287 286 285 290 290 289 287 287 283 298 306 306 309 313 304 305 314 318 317 313 312 313 315 317 318
313 313 314 314 314 314 314 314 314 313 314 314 310 307 305 311 312 311 310 305 300 295 297 305 304 303 303 301 301 301 298 293 294 292 293 293 296 294 283 285 290 291 287 289 283 284 285 283 286 287 291 289 290 291 285 287 290 296 294 292 294 297 290 287 290 295 287 289 288 288 299 304 308 306 301 310 313 318 317 316 313 312 311 311 312 314 317
313 313 313 313 314 314 314 314 314 313 313 313 310 309 304 309 313 313 312 309 301 298 299 304 305 304 305 306 306 305 303 302 303 302 296 293 296 294 293 296 296 295 296 295 290 290 291 289 290 287 286 288 293 287 290 285 284 291 297 295 287 297 294 295 288 297 294 293 297 300 302 307 312 310 309 314 314 317 318 317 315 311 310 312 310 311 314
313 313 313 313 314 314 314 313 313 314 313 314 312 308 304 307 309 314 311 304 305 306 306 304 305 305 307 308 310 309 308 308 306 304 302 296 292 295 294 295 294 300 299 297 290 289 289 290 286 291 288 290 288 288 289 291 287 291 288 295 294 298 298 300 298 296 301 302 303 304 304 305 306 312 315 314 314 315 318 316 314 314 314 312 310 311 312
312 312 313 313 314 314 314 313 313 313 313 313 311 307 306 309 311 310 308 306 302 297 299 301 296 295 298 300 305 309 309 308 307 306 307 303 292 292 299 300 302 299 295 294 298 292 291 291 290 292 286 290 292 286 283 284 287 292 290 290 293 296 299 295 292 298 292 288 300 299 300 304 304 307 311 311 314 316 316 315 315 313 315 314 312 312 312
312 312 313 313 313 314 313 313 313 313 313 312 312 312 311 307 307 308 304 298 298 295 291 294 296 302 305 307 308 306 307 309 310 308 306 304 300 294 293 299 303 297 295 298 300 296 297 291 289 289 285 292 293 284 291 287 286 293 287 289 291 291 300 293 296 295 292 294 298 299 301 306 303 305 307 308 309 313 316 316 316 314 313 315 316 313 312
312 312 313 313 313 313 313 312 312 312 312 312 312 307 306 307 311 311 309 307 305 301 293 291 295 305 307 305 303 306 308 308 307 307 307 306 305 303 300 302 303 306 302 303 298 294 291 290 292 292 289 289 295 288 287 291 290 293 290 289 294 295 299 290 294 292 295 298 300 299 300 303 302 305 306 308 307 310 311 316 314 314 311 312 313 313 314
312 312 312 312 312 312 312 312 312 312 312 312 309 306 306 306 310 308 305 304 299 294 296 291 296 301 304 301 305 307 308 308 307 305 305 304 305 304 303 301 299 299 298 297 299 297 293 291 290 288 291 290 294 291 293 290 290 288 288 292 297 295 290 294 292 289 289 291 294 298 293 293 298 302 303 305 309 310 310 311 310 310 311 310 312 314 314
312 312 312 312 312 312 312 312 312 312 311 312 310 308 309 309 311 311 310 307 300 293 294 294 293 298 304 302 307 306 308 309 307 306 305 304 304 303 302 301 300 298 298 296 292 292 291 289 288 294 294 295 290 288 294 294 293 290 290 291 295 291 292 292 288 288 288 294 296 299 299 298 299 301 303 304 306 307 310 309 309 310 310 312 312 310 310
312 312 312 312 312 312 312 312 312 313 312 309 308 309 310 312 313 312 313 311 305 301 299 298 300 297 293 298 306 305 308 308 308 307 306 306 304 304 304 303 302 302 301 300 297 294 293 293 296 293 292 297 293 290 291 285 285 285 289 293 294 295 297 295 294 294 295 297 297 300 298 296 298 301 302 303 305 305 306 308 311 313 313 313 311 309 308
312 312 312 312 312 312 312 313 314 313 312 308 309 308 304 305 309 310 311 311 306 302 294 293 288 294 302 303 302 305 306 308 307 308 307 306 305 305 306 307 305 303 302 299 297 292 296 295 298 300 301 303 294 292 289 289 286 289 294 295 296 297 297 297 297 294 293 298 298 299 299 299 301 302 302 303 305 306 307 307 309 311 314 314 312 309 309
312 312 312 311 311 312 313 314 314 313 311 306 307 302 297 293 302 313 312 312 309 302 296 296 293 299 298 303 304 303 306 308 306 306 306 307 309 308 309 309 306 305 300 300 297 297 297 293 295 296 301 300 297 291 288 287 285 288 293 296 296 295 295 295 297 298 297 297 298 299 299 299 301 301 301 302 302 304 306 311 311 314 312 313 312 313 312
312 312 311 311 311 312 314 314 314 312 306 305 301 300 300 301 305 310 312 312 309 302 295 289 290 292 292 298 305 307 308 307 307 308 308 308 306 309 308 308 303 307 302 298 299 296 295 297 295 295 294 299 297 290 288 286 285 288 295 295 296 296 296 296 296 298 298 299 298 296 296 297 299 297 297 301 303 304 304 307 310 308 312 311 310 309 311
312 311 310 311 311 312 314 313 313 312 307 308 309 309 308 310 311 312 313 310 305 301 301 295 289 291 291 296 302 306 308 308 306 306 302 307 303 306 302 305 305 304 306 299 294 291 298 297 297 292 296 301 293 288 286 285 288 294 295 295 294 295 297 300 302 302 300 299 298 293 293 295 297 300 301 302 303 303 304 304 307 309 308 306 306 307 308
311 311 310 311 312 313 314 313 312 311 310 306 304 304 308 309 309 310 311 309 304 303 299 293 289 289 290 301 296 303 309 300 299 302 298 306 307 304 300 302 301 297 301 296 298 298 298 297 293 293 296 291 293 288 284 288 294 295 297 297 298 299 300 301 302 302 302 299 299 299 298 299 300 300 300 301 301 302 304 303 304 305 306 308 306 307 308
311 310 311 312 312 313 313 312 308 309 305 305 307 307 308 311 310 311 312 307 298 296 295 295 294 288 291 292 294 299 308 303 298 301 298 302 307 301 302 296 298 294 295 304 297 296 293 293 297 290 286 291 287 285 286 291 294 296 297 297 298 299 299 298 300 302 304 303 300 299 299 299 298 298 298 299 300 301 302 302 303 302 303 304 307 306 306
311 311 312 313 312 312 310 310 307 306 305 306 306 312 313 313 313 310 311 309 303 296 296 295 294 290 292 288 289 298 311 303 304 303 302 301 301 305 304 299 291 297 301 298 292 296 292 299 295 285 290 286 286 286 291 296 295 296 297 297 298 298 298 298 299 302 304 305 302 300 299 299 298 298 299 299 301 301 301 302 302 303 303 304 305 306 307
311 312 312 310 309 309 306 306 311 310 308 310 312 317 315 314 312 311 307 305 306 306 297 294 288 290 293 292 296 302 306 295 303 300 301 298 295 301 300 296 291 297 297 295 295 294 296 302 292 285 285 285 288 296 298 299 297 297 297 298 300 300 300 300 301 302 302 303 301 299 298 298 298 299 299 300 300 301 301 301 302 302 302 302 304 307 306
311 312 308 307 307 305 305 308 311 312 316 315 315 308 304 306 298 301 302 298 301 304 297 296 289 294 299 295 293 303 302 296 303 297 297 301 296 295 300 296 295 297 286 291 295 301 297 295 288 285 286 294 298 299 300 300 300 300 300 300 300 300 300 300 300 299 299 299 300 299 299 298 298 299 299 299 300 300 301 302 302 303 304 306 306 308 308
310 308 307 309 307 305 307 310 313 315 311 311 310 306 302 304 299 297 298 299 300 295 298 295 292 296 294 295 297 304 302 297 295 297 293 298 294 290 297 288 296 295 286 288 294 302 288 289 289 286 288 295 296 298 301 300 300 300 300 301 302 301 301 300 300 299 298 298 300 304 302 299 298 299 300 301 301 302 302 302 303 304 305 305 306 308 306
310 307 307 307 306 308 310 313 316 311 310 303 304 302 300 301 294 291 303 293 292 299 299 293 301 301 302 299 297 297 306 301 295 292 295 296 302 292 296 293 293 290 283 283 290 299 287 285 288 287 288 294 296 300 301 300 299 300 300 301 302 302 302 301 301 301 300 301 303 303 306 309 309 306 303 303 303 301 302 303 304 304 304 304 309 307 307
310 311 312 309 311 310 309 310 309 308 306 303 303 304 301 290 299 302 299 292 292 294 303 300 302 300 304 304 302 297 305 310 305 304 299 293 302 301 292 287 298 287 284 283 294 295 286 287 286 286 289 295 297 300 301 300 300 300 300 301 302 301 301 301 301 301 300 299 300 301 303 305 306 307 308 308 308 307 308 309 309 307 306 305 306 308 314
313 311 309 309 311 312 309 307 305 305 307 306 297 286 291 297 300 296 297 290 290 298 300 301 296 297 299 303 302 303 303 309 306 306 298 293 300 295 292 293 296 284 281 291 297 292 288 284 285 287 294 297 300 301 301 300 301 300 300 301 301 301 301 300 300 300 300 299 299 300 301 302 302 304 306 306 306 307 307 308 309 309 309 309 311 313 314
309 308 308 308 310 309 310 298 304 303 286 287 285 284 291 288 291 292 293 299 304 300 300 307 303 305 306 308 304 306 303 309 301 301 298 293 301 298 292 287 287 282 289 297 292 288 285 285 285 290 296 298 300 300 301 301 301 301 301 301 301 301 301 300 299 299 300 300 299 299 300 300 301 302 304 305 305 305 306 308 308 306 306 306 306 307 309
310 311 311 311 303 308 306 289 301 300 289 288 286 284 289 287 289 292 291 291 296 298 301 299 300 299 296 303 301 302 305 306 306 300 298 300 294 291 290 284 287 294 298 291 290 285 287 291 292 294 297 299 301 301 300 301 301 301 301 302 302 302 301 300 300 299 299 299 299 299 299 299 299 300 302 302 303 303 304 305 306 306 305 304 303 304 305
310 304 295 292 290 295 291 286 293 289 286 288 291 290 290 288 290 291 291 297 299 296 300 300 300 301 300 304 305 304 302 298 305 297 293 295 290 290 288 287 293 293 288 283 287 289 290 288 295 297 298 298 300 301 302 301 301 301 301 301 301 301 302 301 299 299 298 298 298 299 298 298 298 298 299 300 301 302 302 303 305 305 304 303 302 302 304
307 297 292 289 288 288 288 286 286 285 293 295 293 293 292 293 294 294 298 301 298 298 298 299 300 302 300 302 297 296 301 299 294 294 296 294 289 286 294 296 293 285 286 286 283 284 286 290 294 296 298 299 300 301 301 302 302 302 301 300 301 301 301 301 301 300 299 298 298 298 298 298 298 297 297 298 299 300 301 301 303 304 304 304 304 305 305
299 302 293 289 288 288 296 289 290 294 295 296 296 296 296 298 299 299 300 300 297 299 300 301 301 301 297 297 298 296 297 298 294 295 296 290 289 291 296 290 285 286 283 284 284 286 289 294 296 298 299 299 301 301 302 302 303 302 302 302 302 302 302 301 302 302 301 300 299 298 298 298 298 298 298 298 298 299 301 301 301 302 303 303 304 304 304
296 298 293 288 286 288 288 293 298 298 298 299 297 297 298 299 296 296 299 299 299 301 301 300 296 295 295 299 299 293 294 295 292 291 296 293 294 291 286 287 286 288 288 286 287 291 293 297 298 299 300 301 300 300 300 301 301 302 303 302 303 302 302 302 302 302 303 302 300 299 299 299 298 298 298 298 298 299 300 300 301 301 301 301 303 303 304
305 292 288 285 293 295 294 297 295 294 296 298 298 297 297 297 296 297 300 300 300 299 301 299 297 296 291 294 294 292 289 293 287 286 292 290 286 283 285 283 283 282 289 291 289 291 293 297 300 301 301 301 301 301 300 300 302 301 302 302 303 302 303 303 303 304 304 303 303 303 301 301 300 299 299 299 298 299 300 301 301 301 301 301 301 301 302
295 291 296 290 295 294 296 296 294 292 294 295 295 294 296 296 295 298 302 300 300 299 300 299 299 293 292 293 285 288 288 291 290 287 286 285 289 290 287 282 284 285 288 293 292 293 296 298 300 301 301 301 303 301 299 299 303 303 303 304 304 303 303 304 304 305 305 304 303 303 304 304 303 302 300 300 301 302 302 301 301 301 302 302 301 301 302
299 292 292 299 296 294 296 291 291 291 292 294 296 296 297 297 297 297 302 303 299 296 294 292 292 289 285 285 284 282 286 294 289 286 285 285 289 288 284 283 285 289 293 297 297 298 297 298 299 300 301 301 302 302 301 300 301 301 302 303 303 302 304 305 304 304 305 306 307 306 305 305 305 305 306 306 305 303 303 303 303 302 302 303 303 304 302
292 291 294 300 301 300 298 296 297 296 296 297 297 298 300 298 299 300 304 299 297 293 291 294 291 286 283 283 288 291 293 289 286 288 286 289 291 285 285 287 289 292 295 295 295 297 300 298 300 303 302 302 303 302 302 302 301 300 301 302 303 303 304 303 304 304 305 305 305 305 305 306 307 307 306 305 304 303 301 301 304 304 303 302 302 303 303
Wind_Speed
20 20 21 20 19 17 17 16 17 18 18 10 10 6 5 5 7 13 10 14 16 4 5 5 7 5 8 9 9 12 8 8 7 7 3 3 3 3 3 7 6 4 4 7 7 8 3 4 2 8 8 9 9 13 16 17 15 12 6 11 3 16 1 7 9 9 14 17 13 9 8 14 11 7 6 9 13 12 12 9 6 8 6 7 2 3 8
21 21 20 19 17 17 15 15 16 16 16 8 8 4 3 5 6 6 6 15 10 9 8 7 7 7 10 11 9 9 9 11 12 9 10 3 3 3 4 4 4 5 3 4 8 5 1 2 5 5 6 7 8 12 11 18 10 8 5 7 11 7 3 5 9 7 7 7 4 4 2 7 9 10 11 13 13 13 3 6 4 7 9 9 5 6 9
20 18 18 17 17 16 15 14 14 15 15 11 6 6 4 5 5 5 7 10 8 9 5 6 5 9 10 11 12 13 8 7 10 12 6 2 2 2 1 1 4 4 2 5 7 5 6 3 3 4 8 8 9 8 13 17 11 9 12 12 8 5 7 4 3 2 5 8 8 5 2 4 7 11 15 13 15 12 8 6 4 8 5 7 6 5 11
19 19 18 17 16 15 14 13 13 14 14 12 7 5 4 3 5 7 6 6 5 6 4 5 6 6 10 10 7 9 8 8 8 11 8 10 5 3 2 2 5 3 5 5 8 10 1 1 1 3 5 7 4 8 16 11 14 13 8 11 6 3 5 5 7 7 8 10 10 13 10 10 7 10 18 13 10 13 9 6 6 10 5 8 9 8 10
20 19 18 17 15 14 13 12 13 12 12 10 6 4 2 2 2 5 8 8 3 7 5 9 7 6 8 3 6 9 10 9 7 9 3 10 9 2 4 4 4 3 5 2 5 7 11 7 2 4 8 6 9 12 13 14 11 13 9 13 4 1 6 9 9 12 13 16 20 21 14 15 17 16 15 17 15 12 14 10 10 6 10 9 5 9 11
20 19 19 17 14 13 12 12 12 11 11 9 4 2 2 3 1 2 2 2 5 11 9 11 10 9 7 4 5 7 9 10 8 10 7 12 6 7 1 2 4 7 8 5 3 5 7 6 6 3 4 8 8 9 10 12 9 15 8 9 4 4 5 8 10 19 20 20 19 17 14 12 11 14 16 19 17 14 13 11 6 10 8 10 8 8 8
20 19 19 19 15 12 12 11 11 10 10 5 2 2 2 1 1 1 6 3 5 6 10 13 9 9 7 3 4 7 8 8 7 5 10 9 7 4 5 6 10 9 8 2 2 3 6 5 5 4 6 8 8 6 8 1 13 11 12 8 3 5 5 7 13 19 21 19 14 12 11 9 8 9 11 20 19 18 15 9 5 11 6 10 10 8 13
20 20 19 19 15 12 11 11 10 9 8 5 3 3 1 1 2 3 3 4 6 7 6 6 8 6 7 3 3 5 6 8 10 8 7 8 7 7 6 8 9 9 6 5 3 3 4 6 9 6 5 6 2 4 2 10 7 9 10 9 3 4 6 13 13 13 15 13 10 11 12 11 9 6 6 17 19 18 13 9 8 6 4 5 7 9 10
21 19 20 18 16 13 11 10 9 8 3 3 1 3 1 1 1 0 4 6 3 3 3 5 5 5 3 0 4 6 7 8 9 9 9 6 7 8 9 8 7 3 4 5 4 4 6 8 11 12 11 9 3 3 2 2 11 13 8 6 8 5 5 7 8 10 10 9 15 18 15 13 7 2 8 6 17 18 14 9 5 4 5 3 6 4 7
20 20 19 19 16 13 11 10 8 8 2 3 1 3 0 1 1 0 1 3 3 5 4 4 4 2 1 5 7 6 8 9 8 7 4 7 8 9 10 10 2 4 5 5 5 6 6 10 12 11 11 10 8 8 8 7 8 7 7 9 9 3 4 7 7 9 7 10 14 16 16 11 3 10 12 5 3 4 4 4 5 3 2 6 6 8 6
19 19 19 18 16 15 14 11 8 7 1 3 2 2 1 0 2 2 2 3 2 2 4 4 3 3 7 8 9 8 8 11 4 2 4 7 9 9 10 4 2 5 4 4 8 6 9 11 11 10 11 10 10 9 9 13 12 10 9 7 7 7 6 6 4 4 9 17 17 14 3 2 5 5 17 20 2 16 18 11 8 12 11 1 5 6 4
20 19 19 18 16 15 12 10 7 7 5 4 3 4 4 1 1 2 3 4 4 2 2 4 5 8 10 12 11 9 9 9 8 5 6 7 12 12 7 4 3 5 4 5 6 8 9 10 10 9 11 11 12 12 13 14 13 11 8 10 9 10 8 7 3 4 7 12 13 2 2 2 5 3 16 15 10 18 21 24 24 21 22 20 12 2 10
19 19 19 18 17 15 13 11 9 7 6 4 4 6 3 4 2 1 2 4 6 2 5 4 4 9 11 11 9 8 8 9 8 8 8 8 8 6 2 2 4 5 7 8 9 7 5 8 8 9 11 10 9 9 11 12 15 15 11 11 10 10 8 5 3 4 6 3 5 5 6 3 8 6 14 23 16 15 13 20 18 19 17 13 12 9 10
20 19 19 18 17 16 15 12 10 8 8 5 4 4 4 4 3 3 3 3 3 3 4 8 7 7 7 7 8 10 9 7 6 5 6 5 9 8 4 3 4 8 6 5 5 4 4 2 5 4 6 6 4 5 8 12 13 14 16 14 13 14 8 3 6 3 1 5 6 7 7 6 12 13 16 15 9 12 9 9 10 16 16 16 12 11 9
18 19 18 18 17 15 14 13 10 9 9 6 4 5 5 5 4 2 2 2 5 3 3 5 3 4 7 8 7 8 6 6 6 6 5 7 4 4 9 7 8 7 5 4 4 2 1 2 2 4 4 3 4 3 4 4 7 15 16 14 13 12 9 1 2 3 4 7 8 6 5 3 7 11 17 14 10 11 11 3 9 16 19 16 13 10 10
20 19 18 17 17 16 15 14 12 9 9 6 4 5 5 5 5 3 2 3 2 5 5 10 10 5 5 7 8 7 5 5 3 5 6 3 4 9 4 9 8 4 4 3 2 2 2 1 2 3 2 5 5 3 3 5 5 6 13 13 13 11 8 5 5 6 8 5 2 3 1 3 6 18 20 22 19 14 8 3 12 11 15 16 14 14 12
20 19 18 17 17 16 15 14 11 8 8 6 3 3 5 5 5 5 3 3 4 6 5 5 3 5 5 5 2 1 0 2 3 4 5 6 8 9 7 10 5 4 4 3 2 2 4 1 3 3 2 4 5 6 5 3 5 6 2 10 10 8 6 5 4 6 5 5 4 3 2 2 15 19 19 21 20 19 3 7 5 10 13 14 13 14 14
19 19 18 18 17 15 14 13 13 10 9 6 3 3 2 4 7 5 3 3 3 5 5 11 9 4 4 2 5 3 3 2 2 1 3 5 5 3 8 6 7 5 3 3 2 3 2 1 3 3 2 1 7 5 3 7 4 3 4 3 3 1 5 5 6 5 5 5 4 2 2 3 12 16 22 22 17 5 11 7 4 6 9 11 11 12 13
19 19 18 17 16 15 14 14 13 12 9 6 2 4 5 5 6 7 2 2 3 5 3 3 2 6 6 4 6 5 3 3 3 2 4 5 1 2 8 3 3 5 5 3 2 1 2 1 1 2 3 3 3 3 5 4 4 6 4 6 3 3 2 3 3 4 5 6 6 4 3 2 11 18 18 18 4 9 10 3 4 5 8 9 11 13 12
18 19 17 16 15 14 14 13 12 10 9 6 1 3 3 2 6 8 6 3 2 6 5 7 5 9 4 5 5 4 3 3 3 3 2 5 2 5 4 1 4 1 4 4 3 2 2 4 3 2 1 2 2 4 3 3 5 5 5 7 3 4 1 3 1 3 2 3 2 3 4 6 16 20 9 19 10 5 4 3 5 6 7 9 11 12 13
18 17 17 16 15 15 14 13 11 9 9 7 3 3 3 2 5 7 6 4 1 4 5 3 4 6 4 5 6 7 5 7 4 4 4 4 3 2 2 3 4 2 2 3 4 3 1 4 4 3 1 2 5 5 6 6 5 6 8 4 3 7 4 4 4 3 2 2 3 2 3 3 10 11 7 7 8 5 5 4 5 8 8 8 8 12 12
18 17 17 16 16 15 14 12 12 9 8 7 3 1 3 3 4 4 6 5 4 6 4 3 1 6 8 9 10 9 10 12 12 5 3 4 1 3 3 2 2 3 2 2 1 2 1 1 2 2 4 4 2 3 7 4 4 8 7 5 2 4 5 2 3 5 0 1 1 2 5 5 4 6 5 5 5 7 7 6 6 8 10 8 9 11 11
17 16 17 17 16 15 14 12 11 7 7 6 2 2 3 1 2 1 3 5 3 4 4 5 5 7 9 10 13 13 12 11 10 8 6 5 4 2 3 2 2 2 1 1 2 2 3 1 3 2 4 2 5 7 5 1 2 5 8 5 4 5 4 3 2 4 7 3 5 4 4 4 4 9 6 6 7 8 7 6 5 8 9 10 9 10 10
18 17 16 17 16 15 13 12 10 7 5 4 3 2 2 2 1 0 0 1 0 3 4 2 1 4 3 7 8 6 8 7 10 12 8 5 4 3 0 1 1 2 1 6 6 1 2 1 4 1 1 4 3 3 5 4 3 6 7 6 4 5 4 8 3 4 4 2 6 10 12 7 12 8 8 9 8 6 6 6 5 6 7 10 11 9 10
17 17 17 17 16 14 13 10 9 7 4 4 4 4 3 2 3 3 2 1 1 0 3 4 4 10 9 9 8 6 4 8 10 10 7 9 9 4 4 4 7 5 4 4 3 2 1 2 3 1 3 3 4 2 3 5 4 4 7 5 6 4 7 9 2 6 5 3 4 7 9 2 8 7 5 7 9 7 5 6 6 6 7 6 7 7 9
17 17 17 16 15 13 11 10 7 5 3 4 3 2 2 2 1 3 2 2 1 1 2 3 6 5 5 8 7 5 8 8 6 7 13 13 12 11 9 2 1 1 1 1 2 2 2 2 2 2 3 3 5 2 3 2 6 5 5 8 5 9 10 4 8 6 6 7 3 13 9 2 6 7 5 4 7 8 6 3 5 8 9 6 4 4 6
19 18 17 15 14 12 11 9 6 3 2 3 2 2 2 3 2 5 3 2 1 2 1 4 5 6 5 9 7 6 7 6 4 3 3 2 10 8 2 3 2 3 4 3 1 0 1 1 3 4 4 2 3 4 1 2 3 5 5 6 5 5 3 6 10 8 6 5 6 10 6 7 9 5 8 8 7 4 6 10 9 8 9 7 4 4 5
19 17 16 14 13 12 9 7 4 3 3 3 2 2 3 3 3 5 2 2 1 2 2 4 5 9 7 5 4 6 6 6 6 8 7 6 2 5 7 5 3 3 3 2 3 2 1 2 3 3 3 2 4 3 2 5 3 4 4 2 4 6 6 8 8 7 11 12 12 5 3 7 8 6 6 8 7 8 2 1 6 9 9 9 6 8 7
18 17 15 14 13 11 8 5 3 2 5 4 0 2 4 6 4 4 4 2 2 1 2 4 5 3 1 6 7 4 6 7 6 5 5 8 7 5 3 4 3 2 1 2 1 1 0 1 1 3 2 2 5 6 5 4 3 6 4 4 6 4 7 10 11 14 18 14 9 3 5 9 11 10 6 6 8 9 9 3 2 1 5 7 8 8 7
18 16 14 12 11 9 6 4 3 4 5 3 0 2 1 1 2 4 3 4 3 2 1 2 4 3 3 3 4 7 8 8 5 6 7 4 5 4 2 2 3 1 1 2 1 1 1 1 1 1 1 4 4 5 5 4 6 7 6 5 5 10 13 13 11 12 16 13 11 12 14 15 11 11 9 4 5 10 7 4 6 1 3 6 8 8 6
17 15 12 11 9 7 4 4 5 4 3 1 0 0 0 2 1 3 5 3 3 2 1 1 4 4 4 2 2 5 8 6 4 4 5 4 3 3 1 1 1 0 1 1 1 0 0 1 2 1 1 3 2 2 3 5 6 7 10 14 15 16 17 18 17 16 16 16 14 12 13 16 13 11 15 10 6 5 3 2 3 7 3 3 3 2 6
14 12 11 9 8 6 1 6 5 4 2 1 1 1 1 2 2 5 6 4 4 1 1 1 2 2 2 3 1 2 4 4 3 2 1 2 3 2 3 3 2 2 2 1 1 1 2 2 3 4 3 4 4 1 2 2 4 9 16 19 20 18 16 18 19 19 16 13 10 13 16 17 11 11 11 5 4 4 5 2 1 1 4 2 1 2 3
12 11 10 9 6 4 4 7 6 4 1 4 6 7 6 4 9 7 5 3 1 0 1 0 0 1 1 2 3 3 3 2 2 1 2 2 2 2 1 2 1 2 4 1 3 2 2 4 2 3 3 3 2 2 2 4 4 7 12 17 19 20 21 19 18 16 14 11 10 14 16 11 5 7 5 4 4 4 5 6 2 1 2 3 3 3 4
11 10 9 7 5 3 5 5 6 5 2 1 1 2 2 2 4 5 4 1 1 0 0 0 2 2 3 2 1 2 2 1 1 1 1 1 0 1 1 1 2 2 3 2 0 1 2 2 3 5 4 4 4 3 3 6 14 13 10 8 10 13 15 17 17 17 11 9 11 15 17 9 7 6 6 9 11 9 7 5 5 3 1 0 1 1 1
11 9 8 5 4 4 2 3 2 0 1 2 2 1 4 6 3 3 3 1 1 0 0 0 1 2 4 4 1 2 0 1 1 0 0 0 0 1 0 1 3 2 3 0 2 2 3 3 3 4 6 6 3 4 3 14 19 19 18 19 21 19 17 16 14 18 17 10 8 11 9 8 12 13 12 9 7 6 7 9 6 4 3 1 2 3 3
10 7 6 4 3 3 0 1 1 2 1 2 2 4 8 5 3 1 0 1 1 0 0 1 1 1 1 2 2 1 1 0 1 0 0 0 1 0 0 1 3 1 0 2 1 1 2 3 3 3 4 4 6 3 7 12 15 16 16 18 18 17 16 18 16 17 17 11 9 7 5 7 13 15 10 5 7 6 7 7 7 4 4 2 1 1 2
5 2 1 2 1 0 1 2 2 3 3 2 7 8 8 4 1 1 0 0 0 0 1 0 1 2 2 2 1 3 1 2 1 0 0 0 1 0 0 1 1 1 1 1 1 1 1 1 4 1 4 5 5 6 8 10 13 14 15 15 16 17 18 18 20 17 16 11 8 7 5 7 9 9 6 6 5 5 6 8 6 4 3 4 3 2 2
3 3 1 1 1 1 1 1 2 5 13 14 10 4 1 1 0 0 0 0 1 1 1 1 2 3 0 1 1 1 1 2 1 0 1 0 1 1 0 1 1 0 2 1 1 1 2 2 3 2 3 3 2 7 9 8 9 10 11 13 14 16 17 17 19 18 15 18 13 4 3 4 7 7 6 4 4 5 6 6 6 6 5 4 4 3 1
5 1 1 0 1 1 1 1 4 12 8 1 2 0 0 1 0 0 1 1 1 1 1 2 3 2 3 0 5 2 2 1 3 0 1 1 1 2 0 1 0 1 1 1 0 2 2 1 1 2 3 6 7 10 8 8 8 9 11 12 13 13 15 17 20 19 16 14 16 14 1 4 6 6 4 4 4 5 5 5 4 5 5 4 2 1 1
0 0 1 1 1 1 1 4 11 4 1 0 1 1 0 0 0 0 1 1 1 1 2 2 4 3 5 3 0 3 0 1 2 3 1 2 0 0 0 1 1 1 1 2 1 1 2 2 3 2 5 7 7 8 8 8 9 11 11 13 13 14 15 17 18 19 18 18 19 18 15 11 9 4 2 5 5 4 4 4 4 4 3 2 2 1 1
2 1 1 1 1 2 2 3 1 1 0 0 0 0 0 1 2 1 0 0 0 2 1 2 1 1 1 1 0 2 2 0 0 1 1 1 0 1 1 1 0 2 0 1 1 2 1 1 2 4 6 8 8 7 7 7 9 10 11 12 14 13 16 16 17 19 20 19 18 18 18 18 15 11 10 11 10 8 8 7 7 4 2 1 0 1 6
0 0 1 0 1 2 3 0 1 1 0 2 0 2 1 1 0 1 1 1 1 1 3 1 3 2 3 5 4 2 2 1 1 0 1 1 1 1 1 1 0 2 0 1 1 2 2 2 3 3 6 8 8 7 6 6 8 9 11 12 12 14 16 16 17 17 18 19 18 17 17 19 19 15 13 12 12 12 11 10 10 11 11 11 11 8 7
5 1 2 1 1 1 2 1 2 1 0 1 2 2 1 1 1 1 2 0 0 1 2 1 2 1 2 2 0 0 2 1 1 0 0 1 0 1 1 1 1 2 1 0 1 1 3 3 4 6 8 8 7 6 6 5 5 5 8 9 10 11 14 15 14 14 15 16 18 18 17 18 18 17 16 14 15 17 15 13 12 11 11 12 13 13 12
1 1 1 1 0 1 1 1 1 1 2 0 1 1 3 2 5 3 2 3 2 2 2 3 5 1 3 2 3 1 1 1 0 1 1 2 0 2 1 1 2 1 2 1 2 3 2 2 5 6 7 7 8 8 6 5 5 5 6 8 7 8 10 12 14 16 17 15 15 16 18 18 18 18 18 17 17 16 15 13 12 15 15 15 15 14 13
1 1 2 1 1 1 1 2 1 2 2 2 0 0 0 1 3 1 2 3 0 6 8 6 5 2 3 1 1 1 2 1 0 0 1 1 2 2 2 1 1 2 2 1 1 1 1 4 6 6 8 8 7 7 6 4 5 5 5 5 8 9 9 11 13 13 13 14 15 15 15 16 17 18 18 17 15 15 16 13 12 15 15 16 15 16 15
0 1 0 2 4 2 1 1 1 2 1 1 1 2 0 0 1 3 4 1 4 8 8 9 8 2 1 2 1 0 0 2 1 1 1 1 2 2 1 1 2 2 2 2 3 4 3 4 6 7 8 7 7 7 6 5 5 5 4 5 6 7 8 8 8 10 11 12 12 13 14 14 15 15 16 16 16 17 16 15 15 14 15 17 15 13 13
2 1 1 1 1 3 0 1 1 0 1 0 1 3 2 1 1 2 3 2 4 5 6 6 2 0 2 3 2 3 3 1 2 2 1 2 2 1 1 2 2 2 2 4 3 2 3 6 5 6 6 5 5 6 6 5 4 5 5 4 5 6 6 7 7 7 7 9 10 11 12 13 13 14 14 16 16 16 17 18 19 17 17 16 14 12 13
1 2 2 0 2 0 3 1 1 0 1 2 3 4 4 1 3 6 7 3 4 3 5 4 5 6 4 3 4 1 1 1 2 2 1 1 1 1 1 2 1 1 1 0 2 2 3 4 5 6 7 6 5 4 4 5 5 4 4 4 4 5 5 5 6 5 4 5 7 8 9 10 11 12 13 14 15 15 15 16 16 17 18 17 15 14 13
2 1 1 2 1 0 0 0 3 3 2 3 4 6 5 6 4 6 7 4 6 6 4 1 2 1 1 2 2 1 3 2 2 1 1 2 1 1 1 1 2 1 1 2 3 2 2 4 6 6 6 6 6 2 1 2 4 4 3 4 3 3 3 5 5 5 5 4 3 3 5 7 7 8 10 11 12 12 14 14 15 14 15 16 15 15 15
1 3 1 1 2 2 1 3 6 3 4 3 3 4 4 2 5 5 4 5 5 5 5 3 2 2 1 1 1 1 1 1 2 1 2 2 1 1 1 2 2 2 2 1 1 2 3 4 5 5 7 6 6 6 4 3 3 3 2 0 1 2 4 4 5 5 5 5 5 5 3 3 4 5 8 8 8 8 10 12 11 11 11 11 12 13 13
1 1 2 2 2 1 1 1 1 1 2 2 1 3 3 3 3 4 3 2 3 5 4 2 1 1 2 3 1 1 1 1 3 2 1 1 2 1 2 2 2 2 1 0 1 3 2 2 4 5 6 6 7 7 5 3 1 2 2 3 2 1 2 4 6 4 4 5 4 5 6 6 4 3 2 2 5 7 9 10 10 9 9 7 7 7 7
1 1 1 2 1 2 3 2 1 3 4 1 2 2 1 3 4 4 2 4 3 6 4 2 1 1 1 1 1 0 1 2 1 2 3 3 2 2 2 1 2 3 2 2 2 2 2 3 3 4 4 6 7 6 5 5 3 1 0 2 3 3 3 2 1 2 1 1 2 3 3 3 3 3 4 5 5 6 7 7 7 7 7 6 6 7 7
Wind_Direction
334 336 336 337 337 337 339 342 340 341 347 354 349 323 331 358 281 287 288 346 338 6 63 22 20 8 2 341 14 355 7 350 10 350 16 332 42 18 32 15 9 30 3 343 326 320 337 81 347 307 321 321 323 337 337 352 345 339 329 329 310 326 333 305 281 283 259 257 262 284 258 204 206 198 162 180 192 187 191 181 178 186 195 228 269 252 257
333 334 334 333 334 334 337 341 341 339 352 355 333 334 337 302 295 317 358 344 332 54 36 358 348 351 346 2 356 12 351 360 351 347 344 29 31 21 28 4 29 317 353 317 313 350 14 111 320 311 327 299 322 323 341 346 330 343 340 346 337 341 24 13 311 320 307 305 339 288 265 222 205 199 195 194 197 185 150 130 142 184 211 193 165 225 263
332 330 330 330 329 332 337 339 340 339 341 357 346 336 306 276 258 263 329 343 358 50 21 19 333 353 351 343 2 357 356 353 341 340 335 40 83 7 40 330 327 323 333 324 333 23 116 308 227 286 304 291 313 318 337 326 314 301 295 295 319 278 291 328 285 324 232 206 211 229 281 267 235 209 199 191 189 178 137 180 166 194 242 183 205 235 254
331 330 329 329 330 333 336 338 338 337 336 352 353 329 316 6 346 324 325 3 345 67 26 51 9 344 357 344 351 346 338 340 344 2 343 21 4 39 310 7 344 306 355 351 352 329 120 192 292 334 290 308 314 316 321 324 311 310 324 359 338 276 287 239 257 258 264 279 288 279 312 290 290 231 201 186 181 180 181 127 140 192 202 187 219 207 260
329 329 328 330 332 334 332 335 332 336 332 352 340 306 216 283 52 344 338 322 42 9 13 3 12 353 335 326 337 340 343 344 342 14 307 355 328 318 60 344 339 340 341 348 326 331 327 327 334 300 304 301 301 319 308 315 294 5 10 352 321 311 307 273 256 263 276 287 277 283 290 277 274 274 217 190 181 178 185 175 204 171 120 216 241 222 228
328 328 329 330 332 330 330 329 332 332 328 356 346 346 321 27 326 20 56 291 327 347 348 343 328 324 357 317 314 351 359 4 359 337 354 330 356 354 313 355 355 339 338 336 328 331 320 333 312 308 278 314 319 323 315 278 15 9 356 343 359 330 296 290 307 306 298 284 277 268 267 257 264 275 227 194 188 181 184 204 189 150 173 196 231 217 216
327 328 327 328 327 327 326 327 326 329 324 5 328 352 307 230 318 297 29 5 332 301 287 295 311 329 337 310 335 358 358 357 358 339 324 335 333 352 340 351 347 332 331 359 295 337 335 327 299 308 303 321 334 322 324 171 3 355 348 352 342 327 233 282 325 306 296 289 284 300 275 261 265 296 221 189 191 196 188 187 178 185 177 197 202 187 216
327 326 327 326 326 324 322 317 317 319 331 343 325 208 145 3 44 315 346 315 294 274 286 319 323 314 316 317 340 335 2 344 334 341 336 318 314 352 342 341 337 326 339 337 306 329 315 286 296 306 293 299 342 318 263 299 319 358 336 332 6 355 284 323 325 310 297 285 308 332 339 320 295 308 310 194 191 201 191 174 195 211 228 190 170 174 225
328 326 324 324 322 323 319 314 310 308 0 316 292 313 188 265 175 52 318 322 286 293 323 314 309 304 301 343 322 334 336 331 341 316 296 282 332 331 321 314 316 320 345 315 303 318 312 303 297 307 298 285 197 139 224 281 306 323 331 330 322 321 275 323 312 323 300 310 346 330 323 309 276 320 355 223 190 198 195 182 169 156 217 185 121 169 239
326 326 323 321 323 318 315 315 308 295 206 254 219 270 210 251 243 209 151 282 306 307 276 292 319 297 270 322 330 336 320 315 359 336 301 344 330 313 319 310 333 308 324 297 296 318 306 301 301 298 284 266 252 200 229 247 268 281 294 302 296 276 300 317 334 318 269 289 326 324 312 321 20 15 352 303 124 100 163 158 104 29 280 141 163 214 217
327 323 324 322 322 322 320 314 299 292 244 253 238 234 256 25 312 335 177 268 217 250 341 287 280 270 321 325 319 315 316 324 60 35 312 315 307 313 311 325 38 296 279 293 312 291 292 287 290 282 281 276 248 223 209 218 229 246 268 291 282 283 289 291 326 297 290 312 322 309 323 101 56 346 20 3 28 85 67 53 12 6 33 240 248 214 147
325 323 321 322 321 321 318 311 300 280 239 236 226 245 210 148 253 217 246 277 277 304 257 266 285 300 310 310 311 318 326 329 332 165 286 283 285 294 311 331 340 306 255 295 309 298 294 285 276 278 274 266 264 255 229 229 240 235 227 245 267 281 288 281 286 261 293 313 328 261 212 214 287 340 28 13 31 68 81 49 31 11 1 352 355 90 109
322 322 321 321 321 321 317 317 308 289 253 226 228 256 199 173 173 210 255 264 272 298 306 274 279 291 291 298 319 328 332 323 316 318 291 275 290 304 333 301 309 302 316 316 306 314 324 298 298 286 285 280 267 257 259 239 237 234 230 229 250 264 267 283 264 254 280 311 357 193 194 230 328 0 19 1 7 3 22 52 22 14 5 349 15 354 90
324 322 321 322 321 321 318 315 304 288 265 240 233 226 226 163 175 201 213 252 263 225 239 287 287 280 293 317 325 318 313 307 310 299 304 311 306 301 289 280 294 301 303 304 304 315 323 12 327 333 328 314 295 256 240 245 243 240 230 227 229 247 263 260 294 262 325 330 288 255 324 315 1 1 357 352 339 323 334 78 35 11 356 4 360 18 19
322 322 322 322 322 318 316 313 313 302 285 264 232 237 224 191 174 167 192 227 272 251 199 255 251 276 315 312 318 316 314 312 331 317 302 293 298 334 308 334 320 316 309 340 331 354 244 330 348 329 322 355 356 313 327 297 245 229 231 224 226 231 233 243 341 296 18 350 329 345 36 342 302 332 315 322 299 300 278 336 52 1 359 359 3 21 29
323 323 323 322 320 318 316 316 314 298 282 272 231 236 235 207 190 170 186 198 266 293 240 222 238 277 297 301 302 298 305 314 311 298 319 309 298 311 332 335 315 318 344 330 306 325 327 35 299 349 291 328 331 318 325 304 318 236 206 215 220 239 237 252 257 275 318 319 313 286 6 254 9 326 321 319 321 309 289 112 52 357 351 355 353 18 25
324 324 323 320 320 320 320 318 311 303 290 265 237 219 234 182 190 195 188 200 210 226 293 324 287 290 304 288 300 323 238 311 333 339 323 327 318 313 324 330 320 347 353 6 343 13 358 348 273 247 286 334 314 316 311 338 321 3 85 187 215 242 274 271 252 269 271 294 306 285 257 285 320 319 318 315 315 305 223 74 45 330 342 349 0 21 23
322 323 322 321 323 324 322 317 316 313 303 293 233 244 239 179 195 177 192 197 227 272 228 246 252 255 238 297 290 297 303 284 265 189 221 273 303 338 333 333 343 319 354 3 3 30 343 343 347 306 288 282 309 300 4 329 356 360 324 290 148 261 267 257 269 263 277 286 273 291 346 322 318 319 316 316 302 312 69 75 69 296 335 358 9 19 29
322 321 323 323 326 324 319 319 319 317 313 312 273 239 241 211 188 184 195 206 195 246 230 292 205 254 273 260 236 249 221 256 285 294 296 318 256 318 309 3 351 340 2 347 354 8 341 258 200 297 297 319 344 5 329 344 337 315 319 29 120 192 248 246 237 264 264 263 262 238 178 231 323 322 312 313 342 48 80 70 269 310 348 12 19 29 24
322 325 326 326 326 322 320 322 320 318 314 309 239 247 254 180 187 192 199 227 198 263 268 262 246 263 264 275 284 280 294 266 164 180 245 279 274 335 325 39 316 335 326 2 12 332 40 319 317 268 322 307 278 295 307 290 329 335 350 340 55 4 217 292 202 256 238 253 278 13 356 323 340 324 341 11 57 46 357 358 348 355 12 21 28 31 28
326 327 328 327 323 322 321 322 321 318 314 309 286 282 288 217 199 202 204 212 244 289 287 245 240 251 271 266 258 264 270 256 243 264 219 224 264 37 349 348 314 340 0 357 346 337 15 310 326 326 326 342 297 333 351 325 300 347 350 322 72 17 48 1 338 355 296 343 52 41 12 293 322 3 45 357 42 52 29 3 338 15 25 26 28 31 30
328 328 328 326 323 323 324 323 321 316 309 302 265 232 268 222 201 199 205 196 226 227 255 285 285 260 257 253 252 245 245 251 255 242 254 287 242 196 233 265 194 222 177 166 269 324 49 285 304 326 322 308 273 321 327 336 358 341 337 4 12 9 37 349 266 286 138 236 342 312 257 170 255 63 8 354 36 48 42 24 6 3 20 14 38 29 25
328 328 325 325 325 325 325 324 323 319 310 298 262 220 257 326 295 190 182 223 228 276 290 294 290 284 281 263 247 241 240 238 249 245 227 230 290 249 210 187 231 197 123 96 190 203 237 173 250 260 308 284 326 329 332 43 309 350 338 332 272 322 300 290 253 280 277 261 193 269 308 326 51 59 40 32 18 17 40 42 18 10 5 9 29 24 26
329 329 327 325 326 326 328 331 330 330 317 293 212 189 242 251 277 42 146 233 205 306 289 225 43 305 257 278 280 232 220 235 228 233 219 181 210 275 295 220 144 95 238 218 207 160 249 205 244 236 266 274 324 343 354 348 352 329 331 330 338 314 6 354 308 285 359 304 345 360 350 22 58 66 35 28 24 15 6 40 26 11 27 16 2 23 24
329 329 328 326 328 329 333 333 337 336 312 285 258 239 234 269 232 198 208 189 227 191 277 318 245 240 257 262 272 276 210 221 224 224 206 195 205 189 218 205 176 183 221 216 157 248 329 288 323 336 318 301 33 317 336 325 288 8 327 307 333 299 15 333 288 321 304 283 327 4 341 82 55 66 22 47 23 3 25 9 41 22 24 39 1 353 28
328 328 327 327 329 332 332 333 334 334 307 279 238 193 210 237 206 160 200 294 292 244 290 291 280 300 316 332 321 286 285 281 275 218 200 205 207 205 223 224 255 146 149 57 98 9 291 321 307 286 329 304 49 337 286 256 286 314 285 284 291 299 321 310 349 313 297 295 10 0 340 11 54 51 35 25 41 17 4 345 360 11 16 14 8 8 25
329 329 328 328 330 331 331 336 334 319 287 228 218 226 245 272 198 154 178 195 242 309 191 257 274 298 349 322 289 302 312 315 253 266 318 178 195 207 226 26 38 24 46 18 339 43 27 359 306 305 305 276 352 260 266 315 324 310 288 285 314 317 323 346 353 335 311 315 357 7 358 316 326 6 1 352 1 13 30 346 346 356 347 347 17 18 23
328 328 328 327 328 328 332 340 345 333 232 212 226 253 241 247 234 191 182 130 149 205 287 286 304 296 304 259 287 309 328 5 30 28 20 328 18 42 59 64 78 53 33 46 14 24 21 346 306 288 292 340 350 294 295 265 258 258 241 286 3 330 334 350 319 301 284 290 310 290 265 280 268 302 338 333 329 325 33 103 345 329 339 336 11 25 22
327 327 326 325 323 324 330 347 358 59 96 96 143 257 273 248 223 198 186 143 106 140 246 266 278 316 328 315 309 327 359 350 27 44 55 37 39 54 95 105 108 141 95 98 130 125 236 236 262 301 348 314 285 291 343 338 342 285 266 302 316 293 318 305 297 293 278 275 272 268 302 284 291 294 304 309 313 316 310 284 199 276 333 356 12 14 9
324 323 322 319 318 322 330 13 32 99 106 92 79 238 356 316 195 201 196 158 156 129 95 344 338 271 314 307 312 359 344 349 44 54 42 49 72 76 75 86 86 93 124 135 110 312 106 244 210 272 333 353 318 315 313 317 301 276 282 286 304 316 311 299 288 277 280 291 293 294 289 282 277 283 284 282 301 295 287 318 322 103 96 24 13 1 346
320 318 316 316 316 317 331 72 96 117 114 103 214 157 221 351 251 177 169 147 140 113 186 177 246 287 306 276 311 340 337 351 45 53 45 37 52 40 4 12 66 31 115 97 89 178 297 309 303 273 25 325 351 318 316 322 308 300 314 330 324 316 308 300 291 276 270 272 275 277 276 272 275 287 279 267 248 259 271 309 319 335 345 120 99 331 343
315 311 308 311 310 309 175 116 106 119 129 169 189 128 162 232 203 139 135 140 107 69 84 344 322 327 309 297 314 314 321 352 53 37 53 338 38 1 53 359 78 3 26 69 21 33 2 318 326 324 328 344 358 252 255 244 276 289 318 324 317 309 296 291 292 285 271 256 261 272 264 258 246 239 263 288 275 275 285 273 242 324 342 356 11 5 333
309 310 304 301 301 278 169 132 132 125 183 231 258 266 288 111 125 132 123 115 58 116 125 46 216 249 315 290 315 316 338 352 4 22 21 3 27 341 35 29 31 67 343 21 39 22 330 338 315 326 329 340 18 321 244 219 230 297 308 305 305 304 305 299 292 281 269 252 207 225 243 240 218 213 223 260 276 299 316 326 312 94 59 13 3 359 3
305 304 305 293 288 245 177 160 147 130 60 31 302 243 233 160 135 146 146 150 136 111 100 74 348 356 271 292 24 303 33 91 293 2 13 1 239 50 43 34 342 34 346 52 80 42 323 3 354 314 341 11 353 322 294 302 319 324 319 307 309 315 313 311 316 318 297 246 228 228 243 243 256 258 266 266 274 287 289 290 289 332 43 68 315 282 256
303 298 288 283 230 235 243 160 100 82 225 233 231 275 161 168 194 203 182 175 62 337 49 325 122 359 340 340 35 288 137 82 336 297 132 264 20 122 303 37 328 49 330 29 23 30 9 19 309 20 345 321 327 359 324 324 334 345 345 347 345 338 336 337 330 323 310 283 242 239 234 225 238 245 235 230 238 245 266 276 276 281 322 136 222 287 308
300 286 272 268 288 262 219 59 151 160 277 224 214 156 157 187 215 153 95 120 139 128 323 238 92 234 172 316 309 276 101 46 225 334 185 120 1 357 51 109 30 16 174 45 55 3 40 328 25 2 302 1 10 331 321 333 342 339 342 345 340 340 336 335 328 321 324 304 272 250 208 201 225 239 234 206 203 217 219 245 258 241 234 240 229 238 279
277 271 100 58 50 52 233 232 165 176 226 146 130 131 136 127 40 21 29 14 2 94 174 95 39 267 181 244 264 282 42 343 145 354 297 116 220 229 96 43 101 211 64 21 106 115 114 14 83 339 345 9 320 312 346 344 347 343 345 341 342 346 348 346 344 338 340 337 268 271 231 216 235 242 241 214 203 198 207 220 224 220 223 228 217 190 217
140 145 134 76 53 5 297 248 199 139 111 113 119 88 15 354 116 177 326 20 224 137 307 95 219 250 2 86 314 295 49 277 80 214 312 225 49 328 31 101 230 46 17 18 321 119 145 72 68 76 289 261 279 352 355 343 347 343 341 343 346 350 351 354 354 355 350 354 347 252 245 244 247 250 236 236 198 211 215 212 206 204 201 194 191 181 157
133 131 75 210 99 254 263 283 127 121 96 49 24 75 170 236 8 353 232 186 63 312 240 137 255 171 137 195 265 236 168 280 322 302 19 269 93 320 323 49 308 59 322 40 260 159 2 355 95 53 17 2 14 358 351 349 349 353 348 348 350 352 356 360 2 359 354 355 350 356 247 224 242 259 245 239 221 215 218 212 206 197 188 178 171 152 122
9 132 176 133 231 236 355 138 140 111 116 66 230 121 277 151 93 314 165 23 323 256 134 285 217 182 177 200 209 313 234 102 322 306 237 314 94 136 254 89 274 79 353 15 16 91 95 27 354 8 14 0 8 348 351 352 359 355 355 353 354 357 360 6 7 3 2 5 9 11 12 28 29 2 277 232 224 224 233 231 212 181 161 166 175 144 136
213 232 266 192 130 124 140 143 329 28 227 255 229 289 183 316 220 194 128 2 224 244 203 197 333 4 277 136 149 232 286 88 191 131 109 188 249 74 67 62 170 75 343 11 304 79 62 67 0 14 351 339 348 347 344 352 2 359 359 358 1 3 5 7 11 10 10 13 13 17 15 20 24 21 27 43 55 54 48 43 28 9 14 31 16 102 107
173 210 189 71 256 100 86 107 196 257 249 206 139 281 209 212 48 4 127 116 267 280 296 208 290 190 239 185 204 139 295 179 133 130 96 340 246 131 219 173 351 102 58 257 113 57 59 32 338 353 335 340 344 351 349 353 358 1 360 1 4 9 10 10 12 12 14 19 17 18 19 23 25 22 26 38 45 45 40 41 43 46 49 50 50 47 88
321 162 142 194 152 164 182 348 251 144 88 340 37 351 338 42 294 302 291 286 312 108 266 53 228 232 264 87 349 173 192 152 123 99 101 237 42 47 99 20 55 35 322 326 63 28 28 356 4 351 341 347 343 353 347 342 331 346 356 359 11 14 14 14 11 14 18 22 24 20 20 22 24 22 22 30 42 48 43 43 50 56 57 63 58 53 43
174 123 91 149 65 274 154 316 238 41 341 23 89 8 341 11 326 360 0 296 301 302 254 305 281 115 314 236 154 178 15 333 347 59 270 252 70 345 43 49 358 358 77 32 47 40 3 38 5 336 340 344 356 351 341 335 334 330 349 359 3 15 20 20 19 20 20 20 24 26 28 24 23 23 25 28 31 40 44 41 47 63 61 61 60 54 45
84 349 24 19 358 269 55 306 333 93 25 308 58 6 6 54 304 311 323 265 337 291 307 298 296 237 254 264 61 271 163 178 33 103 325 34 51 345 66 331 328 16 50 12 12 11 33 356 328 342 348 349 343 336 335 342 329 341 340 356 8 10 16 28 27 26 23 22 21 25 33 28 27 28 27 26 28 35 40 35 38 55 58 62 60 59 51
126 201 81 60 318 309 108 276 356 30 330 56 14 301 150 263 268 292 261 304 334 324 330 316 317 294 277 255 115 337 334 98 88 357 340 19 93 47 23 60 55 39 21 34 357 344 335 314 329 342 338 336 334 329 319 333 344 348 344 4 0 10 16 25 35 39 33 28 25 29 33 35 34 33 32 27 29 33 36 33 37 44 54 56 50 54 60
358 345 99 122 80 276 124 48 9 214 200 236 297 44 65 261 269 289 272 317 313 293 305 283 261 275 94 356 26 356 357 29 64 328 27 57 47 73 41 76 23 28 18 13 360 317 319 338 333 315 317 325 320 304 318 330 349 3 355 352 5 5 9 20 26 41 48 41 38 38 38 38 40 39 38 37 32 31 30 31 34 35 48 55 50 47 52
249 252 89 93 243 217 47 310 184 32 355 109 30 34 3 23 25 339 316 297 263 328 342 333 3 350 12 331 81 132 346 20 61 337 345 35 28 38 37 33 67 100 126 128 300 277 292 300 299 302 304 297 270 280 317 330 340 355 356 359 6 1 3 9 11 15 27 52 57 55 54 51 48 50 48 45 40 37 36 35 33 34 39 40 44 47 49
176 122 140 203 215 106 162 267 71 75 327 354 32 41 14 10 330 312 305 323 350 341 301 44 21 50 338 285 71 38 20 324 70 289 358 20 66 17 352 77 319 325 220 185 220 244 267 291 290 294 299 314 327 330 281 286 313 329 2 14 2 11 360 356 354 355 5 15 29 66 78 74 66 67 68 67 62 50 45 41 38 39 41 41 39 41 41
49 336 2 45 5 333 301 47 58 18 333 347 16 5 356 352 327 304 302 356 333 349 358 14 6 85 288 47 9 355 54 356 107 39 51 31 31 30 36 54 358 330 311 336 355 320 293 298 306 314 321 323 324 330 330 306 312 330 318 291 76 29 14 3 347 352 1 13 15 19 26 73 82 73 73 74 77 81 74 66 55 49 50 51 50 44 40
336 131 230 198 153 226 83 65 323 322 339 354 10 3 8 334 306 304 303 358 0 25 31 17 313 65 13 13 25 31 327 72 59 54 101 45 330 54 59 69 307 295 80 63 233 243 258 290 301 308 322 322 322 319 317 314 312 280 309 347 360 106 99 17 355 350 6 3 4 4 0 7 30 65 75 67 75 75 79 80 81 75 63 54 50 58 55
40 11 295 307 32 126 146 176 139 145 159 164 73 303 81 13 311 278 321 59 44 49 345 315 47 25 52 46 280 265 348 45 54 38 45 55 8 52 71 40 12 19 109 162 237 259 274 301 304 309 307 318 326 319 322 332 350 349 325 342 6 16 28 77 63 301 298 16 31 4 6 2 37 33 58 64 56 65 70 73 77 81 79 67 53 43 40